Welcome to the New NWS' Forecast!
Most changes are behind the scenes, but click here for differences you might notice.

Regional Weather Roundup (RWR)

Issued by Gray - Portland, ME (GYX)

                            
716 
ASUS41 KGYX 211610
RWRGYX
WEATHER ROUNDUP FOR MAINE AND NEW HAMPSHIRE
NATIONAL WEATHER SERVICE GRAY ME
1100 AM EST SUN JAN 21 2018

MEZ002-005-006-010-012-015-018-020-021-024-026-027-029-211700-
MAINE
  
CITY           SKY/WX    TMP DP  RH WIND       PRES   REMARKS
PORTLAND       PTSUNNY   40  30  67 SW6       30.11S                  
SANFORD        FAIR      40  29  64 W8        30.11                   
BAR HARBOR     FAIR      38  20  48 W9        30.07S                  
WISCASSET      FAIR      42  25  50 W7        30.10S                  
ROCKLAND       FAIR      39  24  55 W10       30.09R                  
FRYEBURG       FAIR      43  25  49 W12G22    30.08S                  
LEWISTONAUBURN CLOUDY    42  24  49 NW9G17    30.09S                  
AUGUSTA        FAIR      40  22  48 W12G20    30.07F                  
WATERVILLE     PTSUNNY   40  20  44 NW15G23   30.02F                  
BANGOR         FAIR      34  19  54 NW5       30.08R                  
GREENVILLE       N/A     24  12  60 NW13G20   29.98R WCI  12          
MILLINOCKET    FAIR      25  10  53 NW12      30.07S WCI  14          
HOULTON        FAIR      21   8  57 W10       30.02S WCI  10          
PRESQUE ISLE   FAIR      19   7  59 NW12      30.02F WCI   7          
FRENCHVILLE    FAIR      13   3  64 W10       29.97S WCI   0          
CARIBOU        FAIR      18   4  54 NW7       30.00F                  
$$

NHZ002-005-008-009-011-012-014-211700-
NEW HAMPSHIRE
  
CITY           SKY/WX    TMP DP  RH WIND       PRES   REMARKS
PORTSMOUTH     PTSUNNY   40  29  64 W7        30.12R                  
ROCHESTER      FAIR      40  31  70 VRB3      30.11R                  
NASHUA         FAIR      44  31  60 NW7       30.15R                  
MANCHESTER     PTSUNNY   41  31  67 N3        30.12S                  
CONCORD        FAIR      35  31  85 CALM      30.13S                  
LACONIA        FAIR      42  28  57 W8        30.11S                  
PLYMOUTH       FAIR      40  27  59 W7        30.11F                  
BERLIN         CLOUDY    35  24  64 NW8       30.06S                  
WHITEFIELD     CLOUDY    35  25  66 W7        30.09S                  
JAFFREY        FAIR      41  30  65 W7        30.12S                  
KEENE          CLOUDY    32  30  92 CALM      30.16R                  
LEBANON        FAIR      39  31  72 CALM      30.11F                  
MT WASHINGTON  FOG       14  14 100 NW54G63     N/A  VSB 0   WCI -12  
$$

VTZ005-007-008-211700-
VERMONT
  
CITY           SKY/WX    TMP DP  RH WIND       PRES   REMARKS
ST JOHNSBURY     N/A     36  26  67 MISG      30.10R                  
MONTPELIER     CLOUDY    35  28  75 NE5       30.13S                  
BURLINGTON     CLOUDY    38  26  62 CALM      30.14R                  
$$

MAZ007-012-024-CTZ003-RIZ002-NYZ038-NYZ072-211700-
SOUTHERN NEW ENGLAND AND NY
  
CITY           SKY/WX    TMP DP  RH WIND       PRES   REMARKS
BOSTON         FAIR      45  31  58 W6        30.15S                  
WORCESTER      FAIR      41  26  55 VRB3      30.13R                  
NANTUCKET      FAIR      44  31  60 NW9       30.14F                  
PROVIDENCE     FAIR      47  31  53 NW6       30.16F                  
HARTFORD       FAIR      45  32  60 VRB3      30.17S                  
ALBANY         CLOUDY    39  29  67 W7        30.19S                  
NEW YORK CITY  PTSUNNY   46  29  51 NW9       30.19R                  
$$

ANZ081-ANZ082-ANZ150-NHZ014-MEZ023>029-211700-
COASTAL MARINE OBSERVATIONS
  
STATION/POSITION TIME  TEMP    WIND        PRES    WAVE
                       AIR SEA DIR/SP/G            HT/PER
                 (UTC) (F)     (DEG/KT/KT) (MB)    (FT/S)
MOUNT DESERT ROC 1600   37     300/  7/  8 1018.8R
MATINICUS ROCK   1500   39     290/  8/  8 1018.2R
ISLE OF SHOALS   1500   39     270/ 11/ 11 1019.7R
JEFFREYS LEDGE   1536      43                N/A     2/ 3
GEORGES BANK BUO 1450   48 59              1016.3   11/10
$$

.............KEY..............
   WCI - WIND CHILL
   TC  - TEMPERATURE IN CELSIUS
   VSB - VISIBILITY IN MILES
   HX  - HEAT INDEX
   FAIR- INDICATES FEW OR NO CLOUDS BELOW 12,000 FT, WITH NO 
         SIGNIFICANT WEATHER AND/OR OBSTRUCTIONS TO VISIBILITY.